Location: Brabourne
(51.1333°N, 1.0000°E)
Time: 06:06:19
(UTC+00:00)

NOSS 3-1 (A) - Pass Details

Date: 30 October 2021
Orbit: 721 x 1491 km, 63.4° (Epoch: 22 November)

Event Time Altitude Azimuth Distance (km) Brightness Sun altitude
Rises 20:43:41 0° 284° (WNW) 3,471 7.2 -38.8°
Reaches altitude 10° 20:46:22 10° 296° (WNW) 2,637 6.5 -39.2°
Enters shadow 20:50:58 29° 344° (NNW) 1,797 5.1 -39.8°
